[[{"header":{"parameterUnit":"m.s-1","parameterCategory":1,"la1":30.2991,"la2":30.254,"lo1":-89.0895,"lo2":-89.0444,"dy":0.0017,"dx":0.0017,"nx":28,"ny":28,"refTime":"2025-07-24T03:00:00:Z","depth":0,"parameterNumber":2,"parameterNumberName":"U-component_of_WINDS"},"data":[0,0,0,0,0,0,0,0,0,0,0,0,0,0,0,0,0,0,0,0,0,0,0,0,0,0,0,0,0,0,0,0,0,0,0,0,0,0,0,0,0,0,0,0,0,0,0,0,0,0,0,0,0,0,0,0,0,0,0.2308,0.2307,0,0.2269,0.2269,0.2269,0.2232,0.2231,0.2231,0.223,0.2189,0.2188,0.2188,0,0,0,0,0,0,0,0,0,0,0,0,0,0.2346,0.2345,0.2308,0.2307,0.2307,0.2269,0.2269,0.2268,0.2232,0.2231,0.2231,0.223,0.2189,0.2188,0.2188,0,0,0,0,0,0,0,0,0,0,0,0,0,0.2321,0.2345,0.2308,0.2284,0.2281,0.227,0.2269,0.2268,0.2232,0.2231,0.223,0.223,0.2189,0.2188,0.2187,0.2195,0,0,0.2184,0.2184,0,0,0,0,0,0,0,0,0.2322,0.2319,0.2288,0.2286,0.2283,0.2255,0.2267,0.2244,0.2232,0.2251,0.223,0.2229,0.2211,0.2208,0.2203,0.2193,0.2192,0.2184,0.2184,0.2183,0.2183,0,0,0,0,0,0,0,0.2324,0.2321,0.2292,0.2287,0.2284,0.2274,0.227,0.2263,0.2235,0.2249,0.2246,0.2242,0.221,0.2204,0.2201,0.2191,0.2184,0.2183,0.2183,0.2182,0.2185,0.2186,0,0,0,0,0,0,0.233,0.2322,0.2294,0.2291,0.2301,0.2274,0.2269,0.2264,0.2235,0.223,0.2243,0.2241,0.2206,0.2203,0.22,0.2207,0.2183,0.2182,0.2182,0.2184,0.2185,0.2186,0,0,0,0,0,0,0.2331,0.2327,0.2295,0.2306,0.2301,0.2274,0.2269,0.2264,0.2258,0.2231,0.2225,0.2242,0.2205,0.2201,0.2197,0.2205,0.2182,0.2181,0.2184,0.2185,0.2186,0.2221,0,0,0,0,0,0,0.2332,0.2328,0.2332,0.2306,0.2301,0.2294,0.2269,0.2264,0.2257,0.2253,0.2229,0.2224,0.2204,0.2198,0.2196,0.2203,0.218,0.2183,0.2184,0.2185,0.2219,0.2223,0.2227,0,0,0,0,0,0.2333,0.2343,0.2332,0.2329,0.2305,0.2294,0.2291,0.2269,0.2258,0.226,0.2243,0.2225,0.2204,0.2198,0.2195,0.2202,0.2182,0.2184,0.2185,0.2218,0.2223,0.2227,0,0,0,0,0,0,0.2369,0.2339,0.2327,0.2328,0.2314,0.2288,0.2291,0.2275,0.2263,0.2261,0.2233,0.2228,0.2226,0.2213,0.2207,0.2208,0.2191,0.2192,0.2216,0.2221,0.2225,0.2228,0.2179,0,0,0,0,0,0.2377,0.2372,0.2346,0.235,0.2343,0.2318,0.2313,0.2297,0.2281,0.2275,0.2257,0.2241,0.2231,0.2225,0.2214,0.2217,0.2211,0.222,0.2224,0.2227,0.2228,0.2228,0.2232,0.2191,0.2191,0.2191,0,0,0.2394,0.2377,0.2375,0.2356,0.2343,0.2338,0.2314,0.2309,0.2304,0.2274,0.2269,0.2255,0.2235,0.2234,0.2233,0.2224,0.2238,0.2229,0.2232,0.2231,0.223,0.2234,0.2237,0.2192,0.2192,0.2192,0,0,0.2421,0.2408,0.241,0.2397,0.2378,0.2362,0.2362,0.2338,0.2328,0.2323,0.2299,0.2293,0.2276,0.2263,0.2255,0.2276,0.2259,0.2273,0.2294,0.2294,0.2297,0.2299,0.2307,0.231,0.2274,0.2275,0.2275,0,0.2444,0.2436,0.2412,0.2409,0.2401,0.2374,0.2375,0.2364,0.2342,0.2337,0.2327,0.2305,0.229,0.2285,0.2291,0.2284,0.2283,0.2276,0.2298,0.2301,0.2303,0.231,0.2313,0.2276,0.2276,0.2276,0.2276,0,0.2464,0.2459,0.2462,0.2443,0.2435,0.2434,0.241,0.2405,0.2389,0.2373,0.2367,0.2348,0.2333,0.2331,0.2315,0.2323,0.2318,0.2304,0.2286,0.2309,0.2315,0.2318,0.2279,0.2278,0.2278,0.2277,0,0,0.2514,0.2481,0.2483,0.2474,0.245,0.2445,0.2442,0.2428,0.2424,0.2409,0.2406,0.2392,0.2378,0.2368,0.2351,0.2351,0.2369,0.2336,0.2335,0.2343,0.2376,0.2388,0.2392,0.2357,0.2358,0.2358,0.2378,0,0.2538,0.2532,0.2511,0.2511,0.2505,0.2479,0.2476,0.2461,0.2446,0.2438,0.242,0.2411,0.2393,0.2387,0.2386,0.2367,0.2375,0.2365,0.2353,0.2353,0.236,0.2395,0.2407,0.2427,0.238,0.2381,0.2381,0,0.2565,0.2553,0.2553,0.253,0.2526,0.2525,0.251,0.2502,0.2484,0.2473,0.2462,0.2442,0.2437,0.242,0.2411,0.2405,0.2398,0.2388,0.2388,0.2387,0.2369,0.2394,0.2433,0.2436,0.2384,0.2384,0.2384,0,0.2601,0.2585,0.2583,0.2576,0.2548,0.2547,0.2536,0.2517,0.2509,0.2496,0.249,0.2476,0.2468,0.2457,0.2434,0.2424,0.2427,0.2409,0.2417,0.2418,0.242,0.242,0.2458,0.2415,0.2415,0.2415,0.2415,0,0.263,0.2631,0.2599,0.2598,0.2598,0.2572,0.2573,0.2558,0.2542,0.2536,0.2512,0.2507,0.2477,0.2468,0.245,0.2445,0.2441,0.2432,0.2427,0.2434,0.2436,0.243,0.2428,0.2415,0.2415,0.2415,0.2415,0,0.2671,0.265,0.2646,0.262,0.2613,0.2615,0.2592,0.2589,0.2572,0.2566,0.2563,0.2536,0.2524,0.25,0.2481,0.2469,0.2469,0.246,0.2475,0.2472,0.2482,0.2482,0.2519,0.2522,0.2477,0.2477,0.2477,0,0.2691,0.2692,0.2666,0.2661,0.2651,0.2643,0.2636,0.261,0.2603,0.2582,0.2582,0.2568,0.2557,0.2539,0.2517,0.2503,0.2494,0.2507,0.2491,0.2499,0.2494,0.2495,0.2494,0.2511,0.2512,0.2512,0.2513,0,0.273,0.2719,0.271,0.2696,0.2688,0.2676,0.2663,0.266,0.2631,0.2624,0.2613,0.2604,0.2585,0.2572,0.2554,0.254,0.2522,0.2518,0.2519,0.2527,0.2536,0.2532,0.2486,0.2517,0.2517,0.2517,0.2516,0.2516,0.2761,0.276,0.2742,0.2732,0.2719,0.2707,0.2704,0.2686,0.2677,0.266,0.2645,0.2635,0.2615,0.259,0.2577,0.2568,0.2559,0.2561,0.2561,0.2562,0.2565,0.2537,0.2565,0.2564,0.2564,0.2564,0.2564,0,0.2798,0.2785,0.2776,0.2759,0.2751,0.2734,0.2718,0.2713,0.2704,0.2688,0.2677,0.2664,0.2651,0.2627,0.2612,0.2609,0.26,0.2606,0.2606,0.2603,0.2574,0.2575,0.2614,0.2614,0.2614,0.2614,0.2614,0.2614,0.2816,0.2814,0.2801,0.2791,0.2778,0.2769,0.2761,0.2749,0.2736,0.2723,0.2712,0.2697,0.2678,0.2661,0.2648,0.2641,0.2637,0.2646,0.2636,0.261,0.2605,0.2601,0.2601,0.2645,0.2645,0.2666,0.2666,0.2666]},{"header":{"parameterUnit":"m.s-1","parameterCategory":1,"la1":30.2991,"la2":30.254,"lo1":-89.0895,"lo2":-89.0444,"dy":0.0017,"dx":0.0017,"nx":28,"ny":28,"refTime":"2025-07-24T03:00:00:Z","depth":0,"parameterNumber":3,"parameterNumberName":"V-component_of_WINDS"},"data":[0,0,0,0,0,0,0,0,0,0,0,0,0,0,0,0,0,0,0,0,0,0,0,0,0,0,0,0,0,0,0,0,0,0,0,0,0,0,0,0,0,0,0,0,0,0,0,0,0,0,0,0,0,0,0,0,0,0,0.9871,0.987,0,0.9836,0.9836,0.9835,0.989,0.9892,0.9894,0.9896,0.9854,0.9851,0.9848,0,0,0,0,0,0,0,0,0,0,0,0,0,0.9979,0.9976,0.9871,0.987,0.987,0.9836,0.9836,0.9835,0.989,0.9892,0.9894,0.9897,0.9855,0.9851,0.9848,0,0,0,0,0,0,0,0,0,0,0,0,0,0.9936,0.9976,0.9871,0.9893,0.9895,0.9836,0.9836,0.9835,0.9889,0.9892,0.9895,0.9898,0.9856,0.9851,0.9847,0.9763,0,0,0.9834,0.9832,0,0,0,0,0,0,0,0,0.9939,0.9932,0.989,0.9892,0.9893,0.9871,0.9858,0.9811,0.9889,0.9891,0.9896,0.9899,0.9856,0.9852,0.9839,0.9761,0.9759,0.9833,0.9831,0.9829,0.9828,0,0,0,0,0,0,0,0.9942,0.9934,0.9857,0.989,0.9891,0.9903,0.99,0.9849,0.9858,0.9891,0.9895,0.9891,0.9858,0.9843,0.9839,0.9758,0.9834,0.983,0.9827,0.9825,0.9608,0.9605,0,0,0,0,0,0,0.9943,0.9936,0.9858,0.9856,0.9924,0.9899,0.9896,0.9875,0.9859,0.9859,0.9888,0.9893,0.9849,0.9844,0.9837,0.9735,0.9829,0.9825,0.9822,0.9611,0.9607,0.9603,0,0,0,0,0,0,0.9945,0.9935,0.9859,0.9897,0.9888,0.9894,0.987,0.9873,0.9858,0.9857,0.9858,0.9872,0.9851,0.9843,0.9781,0.9735,0.9823,0.9819,0.9614,0.961,0.9605,0.9532,0,0,0,0,0,0,0.9948,0.9936,0.9905,0.9896,0.9886,0.9805,0.9867,0.987,0.9851,0.9858,0.9842,0.9842,0.9853,0.9787,0.9777,0.973,0.9816,0.9619,0.9612,0.9607,0.9539,0.9526,0.9514,0,0,0,0,0,0.9951,0.9885,0.9903,0.9893,0.9848,0.9802,0.9796,0.9812,0.9847,0.9815,0.9814,0.9842,0.9743,0.978,0.9769,0.9721,0.9621,0.9614,0.9607,0.9544,0.9528,0.9515,0,0,0,0,0,0,0.9885,0.9884,0.9904,0.9833,0.9818,0.9812,0.9772,0.9795,0.9768,0.9774,0.9794,0.979,0.9722,0.9716,0.9758,0.9638,0.9688,0.9678,0.9644,0.9628,0.9617,0.9617,0.9812,0,0,0,0,0,0.9863,0.9828,0.9828,0.9765,0.9757,0.9765,0.9746,0.976,0.9744,0.9737,0.9732,0.9713,0.9678,0.9653,0.9621,0.954,0.9535,0.9501,0.9489,0.9479,0.9469,0.9423,0.9407,0.958,0.958,0.958,0,0,0.9815,0.981,0.9786,0.9752,0.9741,0.9702,0.9759,0.9716,0.9686,0.973,0.967,0.9666,0.9646,0.9574,0.9542,0.9566,0.9421,0.947,0.9462,0.9457,0.9414,0.9398,0.9383,0.9575,0.9576,0.9577,0,0,0.9708,0.9702,0.9648,0.9637,0.9621,0.9628,0.9615,0.9606,0.9605,0.9547,0.9578,0.9543,0.9482,0.9466,0.945,0.9339,0.9362,0.9328,0.9262,0.9218,0.9204,0.9192,0.9149,0.9133,0.9319,0.9318,0.9318,0,0.9649,0.9593,0.9617,0.9571,0.9553,0.9594,0.9538,0.9526,0.95,0.9486,0.9515,0.9439,0.9429,0.9352,0.9325,0.9312,0.9296,0.9327,0.9205,0.9193,0.9182,0.9141,0.9125,0.9314,0.9314,0.9315,0.9315,0,0.9521,0.9482,0.944,0.9415,0.9394,0.9343,0.9357,0.9332,0.9349,0.9352,0.929,0.9281,0.9246,0.923,0.9245,0.9155,0.917,0.9202,0.9251,0.916,0.9122,0.9107,0.9308,0.9309,0.9311,0.9312,0,0,0.9367,0.9358,0.9342,0.933,0.9317,0.9286,0.9237,0.9205,0.9182,0.9164,0.9121,0.9069,0.9098,0.908,0.9095,0.9056,0.8964,0.9092,0.9092,0.9065,0.8861,0.8834,0.8816,0.8982,0.8979,0.8977,0.8862,0,0.9258,0.9174,0.9194,0.911,0.9073,0.9112,0.9069,0.9055,0.9057,0.9024,0.9026,0.8988,0.9031,0.902,0.8985,0.8983,0.8923,0.8993,0.8939,0.8937,0.8938,0.8797,0.8768,0.866,0.8847,0.8845,0.8843,0,0.9118,0.9095,0.9008,0.9,0.8985,0.8946,0.8918,0.8888,0.8872,0.8876,0.8857,0.8879,0.8828,0.8882,0.8811,0.8858,0.8838,0.8834,0.883,0.8822,0.8881,0.8781,0.8626,0.8608,0.882,0.8822,0.8824,0,0.901,0.8958,0.8899,0.8888,0.8879,0.885,0.8844,0.8832,0.8812,0.8787,0.8774,0.8743,0.8725,0.8701,0.8713,0.8752,0.8638,0.8694,0.8637,0.8637,0.8608,0.8608,0.8443,0.8602,0.8602,0.8602,0.8603,0,0.8883,0.8827,0.885,0.8813,0.8751,0.8775,0.8712,0.8711,0.87,0.8662,0.8695,0.8659,0.8679,0.8644,0.8653,0.8591,0.8584,0.8584,0.8586,0.8578,0.8577,0.8562,0.8568,0.8598,0.8599,0.86,0.8601,0,0.875,0.8763,0.8701,0.8698,0.8696,0.865,0.8646,0.8611,0.8617,0.8568,0.8558,0.8566,0.8526,0.8538,0.8494,0.85,0.8421,0.8435,0.8426,0.8428,0.8369,0.8373,0.8184,0.8159,0.8338,0.8336,0.8335,0,0.8665,0.8624,0.8617,0.8594,0.8587,0.8551,0.8531,0.8553,0.853,0.851,0.8476,0.844,0.8411,0.8345,0.8345,0.8312,0.8323,0.8259,0.8317,0.831,0.8317,0.8318,0.8312,0.8246,0.8244,0.8242,0.8241,0,0.8513,0.8523,0.8493,0.8465,0.8441,0.842,0.8401,0.8381,0.8402,0.8374,0.8335,0.8313,0.8269,0.8231,0.8201,0.8193,0.8218,0.8223,0.8207,0.8197,0.8192,0.819,0.8389,0.8226,0.8227,0.8228,0.8229,0.823,0.84,0.8364,0.8353,0.8318,0.8308,0.829,0.8256,0.8259,0.8227,0.8194,0.8209,0.8162,0.8148,0.811,0.8099,0.8062,0.8086,0.8064,0.8058,0.8051,0.8042,0.8202,0.8057,0.8057,0.8058,0.8058,0.8059,0,0.8246,0.8242,0.821,0.8184,0.8157,0.8188,0.8169,0.8143,0.8103,0.8088,0.806,0.8014,0.7978,0.7977,0.7942,0.7912,0.7923,0.7902,0.7902,0.79,0.8024,0.8039,0.7894,0.7894,0.7894,0.7894,0.7894,0.7894,0.8163,0.8103,0.8111,0.8045,0.8041,0.7997,0.7983,0.7967,0.7955,0.7902,0.7873,0.7874,0.7864,0.783,0.7797,0.7798,0.7782,0.7755,0.776,0.7875,0.7891,0.7907,0.7921,0.7753,0.7753,0.7638,0.7637,0.7636]}]]